OneWeb SL0268

operational
NORAD ID: 48986 Int'l Des: 2021-060 Owner: ONEWEBN Country: UK Constellation: oneweb
LEOCIRCULARPOLARONEWEB_TYPE

About OneWeb SL0268

Description loading...

Live Position

Loading 3D Globe...

Upcoming Passes

Altitude History

Altitude vs Time

uPlot chart will show altitude changes over time

Two-Line Element Set

1 48986U 21060V 25258.60807398 .00000068 00000-0 14444-3 0 9991
2 48986 87.8979 283.5052 0001842 89.1126 271.0216 13.16595509203729
Epoch: Sep 15, 2025 • Age: 18 hours

Current Status

Altitude 1227.7 km
Velocity 7.24 km/s
Sub-Earth Point -83.56°S, 142.84°E
Launch Date Jul 1, 2021
Age 4.2 years
Type internet

Technical Details

Classification Payload
Mass 148.00 kg
Dry Mass 140.00 kg
Total Mass 148.00 kg
Length 1.30 m
Diameter 1.00 m
Span 5.00 m
Shape Trapezoid+2 pan
Manufacturer ONEWUS
Bus Type ARROW
Phase Status In Orbit
Owner/State ONEWEBN/UK

Large Constellations

Loading constellations...